Retour au catalogue

COSMOS 2251 DEB

LostVLEO
NORAD 37966·DEBRIS·🇷🇺 Russia

Lancé Jun 16, 1993 depuis Plesetsk Cosmodrome

Loading…

Prochains Passages (prochaines 24 heures)

TLE

PériméSource: Space-Track

Époque: May 24, 2026, 00:12 UTC

1 37966U 93036BPR 26144.00862864  .00144975  00000-0  30061-2 0  9995
2 37966  73.9694 245.5801 0010910   8.5380 351.6014 15.45046173878189

Suivez COSMOS 2251 DEB en temps réel avec AllMySat

Download on the App Store